Meath Environmental Platform

Observations for Trim Patrick St

Time AQI Temp °C Hum % Pres Pa CO μg/m³ H₂S μg/m³ NO μg/m³ NO₂ μg/m³ O₃ μg/m³ SO₂ μg/m³ PM1 μg/m³ PM2.5 μg/m³ PM10 μg/m³
Thursday 27 August 2026
20:25 3 18.4 83 38,460 0.05 4.82 1.28 14.52 45.11 1.43 19.14 28.57 31.43
20:24 3 18.5 83 38,460 0.03 4.46 1.14 16.19 45.25 0.72 20 28.58 31.44
20:23 3 18.5 83 38,460 0.04 4.59 1.09 17.07 43.41 1.13 20 27.2 29.92
20:22 3 18.5 83 38,460 0.04 4.56 1.19 15.85 46.41 1.32 18.29 27.21 29.93
20:21 3 18.5 83 38,460 0.03 4.59 1.12 15.54 46.73 1.02 18.29 25.82 28.41
20:20 3 18.5 83 38,460 0.05 5.27 1.23 16.74 43.52 1.08 20.86 28.6 31.46
20:19 3 18.5 83 38,460 0.04 4.85 1.3 17.58 44.01 0.83 16.57 26.53 29.18
20:18 3 18.5 83 38,460 0.05 4.74 1.36 17.01 43.33 1.63 19.14 28.61 31.47
20:17 3 18.6 83 38,460 0.04 4.72 1.38 17.93 43.82 1.06 18.29 27.93 30.72
20:16 3 18.6 83 38,460 0.05 5.9 1.3 23.58 37.32 1.17 16.57 24.46 26.91
20:15 3 18.6 83 38,460 0.04 5.37 1.35 20.63 38.96 0.92 20 27.94 30.74
20:14 3 18.6 83 38,460 0.04 5.9 1.36 17.63 44.91 1.5 18.29 26.56 29.21
20:13 3 18.6 83 38,460 0.04 6.03 1.17 22.28 40.3 1.06 19.14 27.26 29.99
20:12 3 18.6 83 38,460 0.04 5.79 0.92 20.37 42.41 0.7 17.43 26.57 29.23
20:11 3 18.7 83 38,460 0.03 4.74 0.9 16.05 46.99 1.01 18.29 24.49 26.94
20:10 3 18.7 83 38,460 0.03 5.08 0.84 15.43 45.14 1.31 18.29 27.28 30.01
20:09 3 18.7 83 38,460 0.05 5.4 0.77 17.94 46.49 1.31 16.57 25.89 28.48
20:08 3 18.7 82 38,460 0.07 5 0.86 15.4 47.52 1.88 19.14 26.6 29.26
20:07 3 18.7 82 38,460 0.05 5.24 0.82 16 47.15 1.5 18.29 26.6 29.26
20:06 3 18.7 82 38,460 0.06 5.61 0.71 19.89 43.86 1.67 18.29 27.3 30.03